Regional Weather Roundup
Issued by NWS Sterling, VA

Home | Current Version | Previous Version | Text Only | Print | Product List | Glossary On
Versions: 1 2 3 4 5 6 7 8 9 10 11 12 13 14 15 16 17 18 19 20 21 22 23 24 25 26 27 28 29 30 31 32 33 34 35 36 37 38 39 40 41 42 43 44 45 46 47 48 49 50
000
ASUS41 KLWX 100310
RWRLWX

REGIONAL WEATHER ROUNDUP
NATIONAL WEATHER SERVICE BALTIMORE MD/WASHINGTON DC
1100 PM EDT WED JUL 09 2014

Note: "FAIR" indicates few or no clouds below 12,000 feet
with no significant weather and/or obstructions to visibility.
 TC=TEMPERATURE CELSIUS

 * =Non NWS site. Station does not report precipitation (e.g. rain,
    snow, etc.), thunder, or fog.

DCZ001-MDZ009-015-VAZ040>042-051-053>054-100400-
WASHINGTON METRO
  /KDAA//-FT BELVOIR

CITY           SKY/WX    TMP DP  RH WIND       PRES   REMARKS
WASHINGTON NAT CLOUDY    74  67  78 SW6       29.99R
DULLES         CLOUDY    70  67  90 S8        29.98R
ANDREWS AFB    CLOUDY    70  67  90 S6        29.98R
QUANTICO       CLOUDY    73  69  87 S6        29.99R
COLLEGE PARK*  CLOUDY    72  70  94 CALM      29.98R
LEESBURG*      CLOUDY    72  72 100 S3        29.99R
MANASSAS*      MOCLDY   N/A N/A N/A SE7       29.98F
GAITHERSBURG*  MOCLDY    72  64  78 SW3       30.02S

$$

MDZ006>007-011-014-100400-
BALTIMORE METRO

CITY           SKY/WX    TMP DP  RH WIND       PRES   REMARKS
BWI AIRPORT    MOCLDY    72  66  81 S3        29.97R
MD SCIENCE CTR   N/A     76  66  71 MISG      29.97R
MARTIN STATE   MOCLDY    75  68  78 S6        29.98R
ANNAPOLIS      CLOUDY    73  68  84 CALM      29.97R
FORT MEADE*    MOCLDY    68  64  88 CALM      30.00R

$$

MDZ012-015-019>023-100400-
MARYLAND EASTERN SHORE

CITY           SKY/WX    TMP DP  RH WIND       PRES   REMARKS
OCEAN CITY     LGT RAIN  74  70  87 SW17G25   30.01F
SALISBURY      CLOUDY    76  71  85 S10       30.00R
BAY BRIDGE AP*   N/A     73  70  88 S5        29.97S
CAMBRIDGE*     CLOUDY    72  68  88 CALM      29.97S
EASTON*        CLOUDY    73  73 100 CALM      30.00

$$

MDZ017>025-100400-
SOUTHERN MARYLAND

CITY           SKY/WX    TMP DP  RH WIND       PRES   REMARKS
PATUXENT RIVER CLOUDY    73  70  90 S9        29.98R
ST INIGOES     CLOUDY    73  68  84 SE5       29.98R
LEONARDTOWN*   CLOUDY    70  68  94 SE3       29.99F

$$

MDZ003>005-100400-
NORTH CENTRAL MARYLAND

CITY           SKY/WX    TMP DP  RH WIND       PRES   REMARKS
FREDERICK*     NOT AVBL
HAGERSTOWN APT PTCLDY    75  66  73 CALM      29.98R
WESTMINSTER*   MOCLDY    72  66  83 SW3       29.99R

$$

MDZ501>502-100400-
WESTERN MARYLAND

CITY           SKY/WX    TMP DP  RH WIND       PRES   REMARKS
OAKLAND*       PTCLDY    64  57  77 W3        30.10R
CUMBERLAND*    CLEAR     72  61  68 CALM      30.04R

$$

VAZ025>031-100400-
SHENANDOAH VALLEY

CITY           SKY/WX    TMP DP  RH WIND       PRES   REMARKS
WINCHESTER*    CLOUDY    75  68  78 SW5       29.99R
STAUNTON*      MOCLDY    70  65  84 CALM      30.04R

$$

WVZ021-048>050-054>055-100400-
EASTERN WEST VIRGINIA PANHANDLE

CITY           SKY/WX    TMP DP  RH WIND       PRES   REMARKS
MARTINSBURG    MOCLDY    72  67  84 CALM      29.98R
PETERSBURG*    PTCLDY    69  60  73 CALM      30.02S

$$

VAZ036>039-050-100400-
CENTRAL FOOTHILLS

CITY           SKY/WX    TMP DP  RH WIND       PRES   REMARKS
CHARLOTTESVILL MOCLDY    72  70  93 NE3       29.99R
ORANGE*        MOCLDY    72  70  94 CALM      30.02R

$$

VAZ055>057-100400-
NORTH AND CENTRAL PIEDMONT

CITY           SKY/WX    TMP DP  RH WIND       PRES   REMARKS
FREDERICKSBRG* MOCLDY    76  70  81 CALM      29.97S
STAFFORD*      MOCLDY    71  71 100 CALM      30.02S

$$

NCZ024-NYZ072-PAZ021-071-VAZ022-071-100400-
OTHER REGIONAL OBSERVATIONS

CITY           SKY/WX    TMP DP  RH WIND       PRES   REMARKS
NEW YORK CITY  MOCLDY    73  65  75 N6        29.97R
PHILADELPHIA   CLOUDY    80  69  69 SW14G22   29.96R
PITTSBURGH     MOCLDY    71  58  63 N8        30.02R
ROANOKE        MOCLDY    69  66  90 NW3       30.06R
RICHMOND       CLOUDY    77  70  79 S8        30.00R
RALEIGH        LGT RAIN  75  70  84 S3        30.03R

$$

ANZ530>537-100400-
MARINE OBSERVATIONS

STATION/POSITION TIME  TEMP    WIND        PRES
                       AIR SEA DIR/SP/G
                 (UTC) (F)     (DEG/KT/KT) (MB)
THOMAS PT LIGHT  0300   77 79  200/ 10/ 11 1015.2R
BALT KEY BRIDGE  0300   75     180/  7/  8   N/A
COVE POINT       0300   75     190/ 12/ 13   N/A
LEWISETTA        0300   76 81  170/  5/  5   N/A
SOLOMONS ISLAND  0300      80                N/A
PINEY POINT      0300          170/ 11/ 12   N/A

$$



USA.gov is the U.S. government's official web portal to all federal, state and local government web resources and services.